AAL2860 KDFW-KSLC

Flight info

Callsign AAL2860
Flight time 2h 21m
Altitude 28000
Route HUDAD2 HUDAD PNH ALS JNC J12 HELPR PITTT2
Aircraft A321/M-SDFGHIJ4RWX/LB1

Departure

Time 2026-05-04 13:14
Airport Dallas Fort Worth International Airport (KDFW)

Arrival

Time 2026-05-04 15:35
Airport Salt Lake City International Airport (KSLC)
Time Latitude Longitude Altitude Speed Heading
2026-05-04 12:48 32.90331 -97.03536 622 ft 0 kts 300°
2026-05-04 13:05 32.90330 -97.03533 621 ft 3 kts 300°
2026-05-04 13:05 32.90316 -97.03505 621 ft 4 kts 300°
2026-05-04 13:06 32.90302 -97.03478 621 ft 4 kts 300°
2026-05-04 13:06 32.90289 -97.03450 621 ft 4 kts 300°
2026-05-04 13:06 32.90286 -97.03444 621 ft 0 kts 300°
2026-05-04 13:08 32.90286 -97.03445 621 ft 1 kts 300°
2026-05-04 13:08 32.90296 -97.03455 621 ft 3 kts 339°
2026-05-04 13:08 32.90325 -97.03447 621 ft 6 kts 22°
2026-05-04 13:09 32.90374 -97.03422 621 ft 9 kts 27°
2026-05-04 13:09 32.90434 -97.03367 621 ft 13 kts 50°
2026-05-04 13:09 32.90470 -97.03260 621 ft 15 kts 82°
2026-05-04 13:09 32.90491 -97.03192 621 ft 9 kts 34°
2026-05-04 13:10 32.90566 -97.03186 621 ft 13 kts 360°
2026-05-04 13:10 32.90665 -97.03186 621 ft 16 kts
2026-05-04 13:10 32.90788 -97.03185 621 ft 19 kts
2026-05-04 13:10 32.90931 -97.03183 621 ft 22 kts
2026-05-04 13:11 32.91096 -97.03181 621 ft 25 kts
2026-05-04 13:11 32.91199 -97.03182 621 ft 9 kts 359°
2026-05-04 13:11 32.91274 -97.03183 621 ft 12 kts 359°
2026-05-04 13:11 32.91371 -97.03184 621 ft 16 kts 359°
2026-05-04 13:12 32.91489 -97.03183 621 ft 18 kts
2026-05-04 13:12 32.91545 -97.03169 621 ft 8 kts 47°
2026-05-04 13:12 32.91563 -97.03099 621 ft 9 kts 82°
2026-05-04 13:12 32.91562 -97.03022 621 ft 4 kts 93°
2026-05-04 13:13 32.91544 -97.02993 621 ft 6 kts 162°
2026-05-04 13:13 32.91383 -97.02990 622 ft 53 kts 180°
2026-05-04 13:13 32.90791 -97.02992 622 ft 115 kts 181°
2026-05-04 13:13 32.89807 -97.02997 622 ft 166 kts 181°
2026-05-04 13:14 32.88612 -97.03015 1094 ft 171 kts 182°
2026-05-04 13:14 32.87406 -97.03098 1701 ft 177 kts 184°
2026-05-04 13:14 32.86162 -97.03220 2327 ft 182 kts 190°
2026-05-04 13:14 32.84949 -97.03738 2731 ft 195 kts 205°
2026-05-04 13:15 32.83673 -97.04522 3029 ft 216 kts 207°
2026-05-04 13:15 32.82297 -97.05353 3545 ft 227 kts 206°
2026-05-04 13:15 32.80858 -97.06184 4212 ft 232 kts 206°
2026-05-04 13:15 32.79393 -97.07019 4913 ft 236 kts 207°
2026-05-04 13:16 32.78013 -97.08083 5578 ft 239 kts 225°
2026-05-04 13:16 32.77142 -97.09755 6220 ft 243 kts 251°
2026-05-04 13:16 32.76809 -97.11741 6884 ft 247 kts 260°
2026-05-04 13:16 32.76588 -97.13783 7531 ft 251 kts 264°
2026-05-04 13:17 32.76601 -97.15861 8069 ft 260 kts 271°
2026-05-04 13:17 32.76739 -97.18048 8529 ft 269 kts 273°
2026-05-04 13:17 32.76905 -97.20280 9125 ft 273 kts 273°
2026-05-04 13:17 32.77061 -97.22533 9744 ft 275 kts 274°
2026-05-04 13:18 32.77426 -97.24767 10325 ft 280 kts 288°
2026-05-04 13:18 32.78246 -97.26926 10694 ft 294 kts 296°
2026-05-04 13:18 32.79256 -97.29119 10908 ft 311 kts 298°
2026-05-04 13:18 32.80357 -97.31418 11102 ft 329 kts 298°
2026-05-04 13:19 32.81482 -97.33816 11289 ft 344 kts 297°
2026-05-04 13:19 32.82642 -97.36381 11472 ft 360 kts 297°
2026-05-04 13:19 32.83826 -97.39066 11669 ft 373 kts 297°
2026-05-04 13:19 32.85033 -97.41816 12122 ft 377 kts 297°
2026-05-04 13:20 32.86253 -97.44578 12714 ft 377 kts 297°
2026-05-04 13:20 32.87482 -97.47343 13255 ft 379 kts 297°
2026-05-04 13:20 32.88718 -97.50122 13769 ft 381 kts 297°
2026-05-04 13:20 32.89960 -97.52918 14272 ft 383 kts 297°
2026-05-04 13:21 32.91191 -97.55695 14761 ft 386 kts 297°
2026-05-04 13:21 32.92444 -97.58526 15262 ft 387 kts 297°
2026-05-04 13:21 32.93704 -97.61373 15742 ft 389 kts 297°
2026-05-04 13:21 32.94970 -97.64231 16214 ft 391 kts 297°
2026-05-04 13:22 32.96241 -97.67105 16671 ft 393 kts 297°
2026-05-04 13:22 32.97518 -97.70000 17119 ft 395 kts 297°
2026-05-04 13:22 32.98793 -97.72911 17560 ft 397 kts 296°
2026-05-04 13:22 32.99968 -97.75895 17990 ft 399 kts 294°
2026-05-04 13:23 33.01090 -97.78877 18404 ft 401 kts 293°
2026-05-04 13:23 33.02218 -97.81925 18825 ft 402 kts 293°
2026-05-04 13:23 33.03351 -97.84977 19236 ft 404 kts 293°
2026-05-04 13:23 33.04494 -97.88041 19642 ft 405 kts 294°
2026-05-04 13:24 33.05645 -97.91114 20033 ft 407 kts 294°
2026-05-04 13:24 33.06804 -97.94201 20417 ft 408 kts 294°
2026-05-04 13:24 33.07967 -97.97293 20790 ft 410 kts 294°
2026-05-04 13:25 33.10287 -98.03517 21524 ft 412 kts 293°
2026-05-04 13:25 33.11435 -98.06607 21864 ft 413 kts 293°
2026-05-04 13:25 33.12602 -98.09748 22204 ft 415 kts 293°
2026-05-04 13:25 33.13772 -98.12895 22539 ft 416 kts 293°
2026-05-04 13:26 33.14947 -98.16053 22870 ft 417 kts 293°
2026-05-04 13:26 33.16127 -98.19226 23191 ft 419 kts 293°
2026-05-04 13:26 33.17306 -98.22407 23504 ft 420 kts 293°
2026-05-04 13:26 33.18487 -98.25597 23830 ft 420 kts 293°
2026-05-04 13:27 33.19666 -98.28781 24263 ft 418 kts 293°
2026-05-04 13:27 33.20824 -98.31899 24693 ft 415 kts 293°
2026-05-04 13:27 33.21994 -98.35042 25126 ft 413 kts 293°
2026-05-04 13:27 33.23159 -98.38169 25554 ft 411 kts 293°
2026-05-04 13:28 33.24308 -98.41273 25981 ft 408 kts 293°
2026-05-04 13:28 33.25448 -98.44369 26395 ft 406 kts 293°
2026-05-04 13:28 33.26578 -98.47444 26808 ft 403 kts 293°
2026-05-04 13:28 33.27705 -98.50499 27213 ft 401 kts 293°
2026-05-04 13:29 33.28828 -98.53539 27614 ft 398 kts 293°
2026-05-04 13:29 33.29946 -98.56560 27933 ft 397 kts 293°
2026-05-04 13:29 33.31050 -98.59552 27949 ft 400 kts 293°
2026-05-04 13:29 33.32169 -98.62604 27944 ft 401 kts 293°
2026-05-04 13:30 33.33285 -98.65657 27943 ft 401 kts 293°
2026-05-04 13:30 33.34404 -98.68711 27942 ft 401 kts 293°
2026-05-04 13:30 33.35527 -98.71758 27942 ft 401 kts 293°
2026-05-04 13:30 33.36652 -98.74808 27941 ft 401 kts 293°
2026-05-04 13:31 33.37773 -98.77864 27940 ft 401 kts 293°
2026-05-04 13:31 33.38884 -98.80919 27940 ft 401 kts 293°
2026-05-04 13:31 33.39979 -98.83936 27943 ft 401 kts 293°
2026-05-04 13:31 33.41095 -98.86995 27943 ft 401 kts 293°
2026-05-04 13:32 33.42211 -98.90049 27943 ft 401 kts 293°
2026-05-04 13:32 33.43328 -98.93108 27942 ft 401 kts 293°
2026-05-04 13:32 33.44441 -98.96161 27945 ft 401 kts 293°
2026-05-04 13:32 33.45554 -98.99224 27945 ft 401 kts 293°
2026-05-04 13:33 33.46664 -99.02281 27944 ft 401 kts 293°
2026-05-04 13:33 33.47758 -99.05304 27944 ft 401 kts 292°
2026-05-04 13:33 33.48863 -99.08366 27947 ft 401 kts 292°
2026-05-04 13:33 33.49971 -99.11429 27949 ft 401 kts 293°
2026-05-04 13:34 33.51084 -99.14490 27951 ft 401 kts 293°
2026-05-04 13:34 33.52201 -99.17552 27954 ft 401 kts 293°
2026-05-04 13:34 33.53310 -99.20612 27947 ft 401 kts 292°
2026-05-04 13:34 33.54414 -99.23684 27926 ft 401 kts 292°
2026-05-04 13:35 33.55514 -99.26758 27917 ft 401 kts 292°
2026-05-04 13:35 33.57712 -99.32848 27953 ft 400 kts 293°
2026-05-04 13:35 33.58816 -99.35904 27939 ft 400 kts 292°
2026-05-04 13:36 33.59914 -99.38964 27917 ft 399 kts 292°
2026-05-04 13:36 33.61080 -99.41991 27891 ft 400 kts 297°
2026-05-04 13:36 33.62581 -99.44805 27864 ft 402 kts 304°
2026-05-04 13:36 33.64389 -99.47380 27859 ft 404 kts 308°
2026-05-04 13:37 33.66273 -99.49878 27854 ft 404 kts 309°
2026-05-04 13:37 33.68151 -99.52331 27852 ft 405 kts 309°
2026-05-04 13:37 33.70040 -99.54836 27850 ft 405 kts 308°
2026-05-04 13:37 33.71905 -99.57373 27855 ft 405 kts 308°
2026-05-04 13:38 33.73755 -99.59923 27876 ft 405 kts 308°
2026-05-04 13:38 33.75603 -99.62472 27904 ft 405 kts 308°
2026-05-04 13:38 33.77462 -99.65013 27925 ft 405 kts 308°
2026-05-04 13:38 33.79327 -99.67545 27938 ft 405 kts 308°
2026-05-04 13:39 33.81199 -99.70084 27931 ft 405 kts 308°
2026-05-04 13:39 33.83040 -99.72585 27930 ft 405 kts 308°
2026-05-04 13:39 33.84906 -99.75129 27929 ft 405 kts 308°
2026-05-04 13:39 33.86762 -99.77671 27929 ft 404 kts 308°
2026-05-04 13:40 33.88615 -99.80213 27928 ft 404 kts 308°
2026-05-04 13:40 33.90466 -99.82750 27921 ft 403 kts 308°
2026-05-04 13:40 33.92317 -99.85289 27902 ft 403 kts 308°
2026-05-04 13:40 33.94165 -99.87826 27879 ft 403 kts 308°
2026-05-04 13:41 33.96013 -99.90367 27857 ft 403 kts 308°
2026-05-04 13:41 33.97838 -99.92872 27838 ft 403 kts 308°
2026-05-04 13:41 33.99690 -99.95412 27845 ft 403 kts 308°
2026-05-04 13:42 34.03391 -100.00504 27841 ft 404 kts 308°
2026-05-04 13:42 34.05242 -100.03053 27854 ft 404 kts 308°
2026-05-04 13:42 34.07090 -100.05603 27874 ft 404 kts 308°
2026-05-04 13:42 34.08938 -100.08156 27891 ft 404 kts 308°
2026-05-04 13:43 34.10765 -100.10672 27908 ft 404 kts 308°
2026-05-04 13:43 34.12611 -100.13221 27924 ft 404 kts 308°
2026-05-04 13:43 34.14460 -100.15778 27924 ft 404 kts 308°
2026-05-04 13:43 34.16308 -100.18336 27923 ft 404 kts 308°
2026-05-04 13:44 34.18156 -100.20896 27922 ft 404 kts 308°
2026-05-04 13:44 34.20001 -100.23457 27922 ft 404 kts 308°
2026-05-04 13:44 34.21846 -100.26014 27922 ft 404 kts 308°
2026-05-04 13:44 34.23691 -100.28569 27915 ft 404 kts 308°
2026-05-04 13:45 34.25515 -100.31092 27912 ft 404 kts 308°
2026-05-04 13:45 34.27357 -100.33647 27916 ft 403 kts 308°
2026-05-04 13:45 34.29194 -100.36208 27914 ft 403 kts 308°
2026-05-04 13:45 34.31028 -100.38763 27906 ft 402 kts 308°
2026-05-04 13:46 34.32867 -100.41314 27887 ft 402 kts 308°
2026-05-04 13:46 34.34703 -100.43866 27864 ft 402 kts 308°
2026-05-04 13:46 34.36537 -100.46424 27842 ft 402 kts 308°
2026-05-04 13:46 34.38367 -100.48983 27826 ft 402 kts 308°
2026-05-04 13:47 34.40174 -100.51512 27827 ft 402 kts 308°
2026-05-04 13:47 34.42003 -100.54076 27827 ft 403 kts 308°
2026-05-04 13:47 34.43839 -100.56647 27828 ft 403 kts 308°
2026-05-04 13:47 34.45678 -100.59216 27828 ft 404 kts 308°
2026-05-04 13:48 34.47523 -100.61786 27837 ft 405 kts 308°
2026-05-04 13:48 34.49365 -100.64364 27859 ft 404 kts 308°
2026-05-04 13:48 34.51200 -100.66949 27888 ft 404 kts 307°
2026-05-04 13:48 34.53035 -100.69530 27915 ft 404 kts 308°
2026-05-04 13:49 34.54870 -100.72107 27920 ft 404 kts 307°
2026-05-04 13:49 34.56684 -100.74652 27917 ft 404 kts 307°
2026-05-04 13:49 34.58521 -100.77235 27922 ft 404 kts 307°
2026-05-04 13:49 34.60354 -100.79821 27921 ft 404 kts 307°
2026-05-04 13:50 34.62188 -100.82407 27919 ft 404 kts 307°
2026-05-04 13:50 34.64022 -100.84995 27920 ft 404 kts 307°
2026-05-04 13:50 34.65852 -100.87584 27921 ft 404 kts 307°
2026-05-04 13:50 34.67681 -100.90172 27920 ft 404 kts 307°
2026-05-04 13:51 34.69517 -100.92760 27919 ft 404 kts 307°
2026-05-04 13:51 34.71329 -100.95313 27918 ft 404 kts 307°
2026-05-04 13:51 34.73161 -100.97899 27913 ft 404 kts 307°
2026-05-04 13:51 34.74988 -101.00490 27914 ft 404 kts 307°
2026-05-04 13:52 34.78642 -101.05678 27874 ft 404 kts 307°
2026-05-04 13:52 34.80476 -101.08276 27852 ft 405 kts 307°
2026-05-04 13:52 34.82307 -101.10877 27845 ft 405 kts 307°
2026-05-04 13:53 34.84138 -101.13482 27846 ft 405 kts 307°
2026-05-04 13:53 34.85973 -101.16086 27846 ft 405 kts 307°
2026-05-04 13:53 34.87780 -101.18659 27845 ft 405 kts 307°
2026-05-04 13:54 34.91441 -101.23883 27868 ft 405 kts 307°
2026-05-04 13:54 34.93271 -101.26499 27892 ft 405 kts 307°
2026-05-04 13:54 34.96929 -101.31715 27937 ft 405 kts 307°
2026-05-04 13:55 34.98761 -101.34324 27940 ft 404 kts 307°
2026-05-04 13:55 35.02386 -101.39512 27924 ft 405 kts 307°
2026-05-04 13:55 35.04210 -101.42130 27907 ft 405 kts 307°
2026-05-04 13:56 35.06032 -101.44749 27912 ft 405 kts 307°
2026-05-04 13:56 35.07852 -101.47365 27905 ft 405 kts 307°
2026-05-04 13:56 35.11505 -101.52597 27877 ft 405 kts 307°
2026-05-04 13:57 35.13330 -101.55214 27873 ft 405 kts 307°
2026-05-04 13:57 35.15151 -101.57839 27861 ft 405 kts 307°
2026-05-04 13:58 35.20582 -101.65686 27846 ft 405 kts 307°
2026-05-04 13:58 35.24129 -101.71039 27854 ft 404 kts 302°
2026-05-04 13:58 35.25710 -101.73883 27865 ft 404 kts 301°
2026-05-04 13:59 35.27255 -101.76750 27893 ft 403 kts 301°
2026-05-04 13:59 35.28788 -101.79623 27921 ft 403 kts 301°
2026-05-04 13:59 35.31863 -101.85313 27935 ft 404 kts 301°
2026-05-04 14:00 35.33426 -101.88168 27942 ft 403 kts 301°
2026-05-04 14:00 35.36538 -101.93891 27943 ft 403 kts 301°
2026-05-04 14:00 35.38082 -101.96751 27934 ft 403 kts 301°
2026-05-04 14:01 35.39624 -101.99615 27916 ft 403 kts 301°
2026-05-04 14:01 35.41165 -102.02480 27901 ft 402 kts 301°
2026-05-04 14:01 35.44255 -102.08198 27857 ft 403 kts 301°
2026-05-04 14:02 35.45782 -102.11022 27860 ft 402 kts 301°
2026-05-04 14:02 35.47325 -102.13887 27859 ft 403 kts 301°
2026-05-04 14:02 35.48866 -102.16756 27856 ft 403 kts 301°
2026-05-04 14:02 35.50407 -102.19631 27857 ft 403 kts 301°
2026-05-04 14:03 35.51952 -102.22511 27853 ft 404 kts 301°
2026-05-04 14:03 35.53500 -102.25394 27856 ft 405 kts 301°
2026-05-04 14:03 35.55050 -102.28282 27867 ft 405 kts 301°
2026-05-04 14:03 35.56598 -102.31172 27893 ft 405 kts 301°
2026-05-04 14:04 35.59664 -102.36910 27947 ft 404 kts 300°
2026-05-04 14:04 35.61207 -102.39797 27941 ft 404 kts 300°
2026-05-04 14:04 35.62753 -102.42682 27943 ft 404 kts 300°
2026-05-04 14:05 35.65836 -102.48450 27940 ft 404 kts 300°
2026-05-04 14:05 35.67370 -102.51339 27942 ft 403 kts 300°
2026-05-04 14:05 35.68902 -102.54223 27930 ft 403 kts 300°
2026-05-04 14:06 35.70437 -102.57109 27910 ft 403 kts 300°
2026-05-04 14:06 35.71971 -102.59996 27889 ft 403 kts 300°
2026-05-04 14:06 35.73484 -102.62846 27876 ft 403 kts 300°
2026-05-04 14:06 35.75016 -102.65735 27865 ft 403 kts 300°
2026-05-04 14:07 35.76549 -102.68630 27870 ft 403 kts 300°
2026-05-04 14:07 35.78078 -102.71523 27879 ft 403 kts 300°
2026-05-04 14:07 35.79607 -102.74416 27885 ft 403 kts 300°
2026-05-04 14:07 35.81142 -102.77311 27882 ft 404 kts 300°
2026-05-04 14:08 35.82674 -102.80205 27900 ft 403 kts 300°
2026-05-04 14:08 35.84200 -102.83103 27906 ft 403 kts 300°
2026-05-04 14:08 35.85701 -102.85963 27934 ft 402 kts 300°
2026-05-04 14:08 35.87223 -102.88853 27957 ft 402 kts 300°
2026-05-04 14:09 35.90271 -102.94639 27956 ft 402 kts 300°
2026-05-04 14:09 35.91795 -102.97536 27956 ft 402 kts 300°
2026-05-04 14:10 35.94832 -103.03322 27963 ft 401 kts 300°
2026-05-04 14:10 35.96348 -103.06216 27941 ft 402 kts 300°
2026-05-04 14:10 35.97843 -103.09069 27923 ft 402 kts 300°
2026-05-04 14:10 35.99360 -103.11962 27942 ft 401 kts 300°
2026-05-04 14:11 36.00870 -103.14846 27950 ft 400 kts 300°
2026-05-04 14:11 36.03887 -103.20624 27918 ft 400 kts 299°
2026-05-04 14:11 36.05394 -103.23516 27894 ft 401 kts 299°
2026-05-04 14:12 36.06904 -103.26413 27898 ft 401 kts 299°
2026-05-04 14:12 36.08412 -103.29310 27899 ft 401 kts 299°
2026-05-04 14:12 36.11415 -103.35085 27899 ft 402 kts 299°
2026-05-04 14:13 36.12927 -103.37999 27920 ft 402 kts 299°
2026-05-04 14:13 36.14434 -103.40905 27962 ft 401 kts 299°
2026-05-04 14:13 36.15941 -103.43812 27998 ft 401 kts 299°
2026-05-04 14:13 36.17443 -103.46717 27993 ft 401 kts 299°
2026-05-04 14:14 36.18946 -103.49625 27994 ft 401 kts 299°
2026-05-04 14:14 36.23431 -103.58293 27989 ft 400 kts 299°
2026-05-04 14:15 36.26421 -103.64090 27974 ft 399 kts 299°
2026-05-04 14:15 36.29399 -103.69890 27969 ft 398 kts 299°
2026-05-04 14:16 36.32384 -103.75683 27937 ft 399 kts 299°
2026-05-04 14:16 36.33873 -103.78582 27938 ft 399 kts 299°
2026-05-04 14:17 36.36853 -103.84407 27948 ft 400 kts 299°
2026-05-04 14:17 36.38345 -103.87316 27967 ft 400 kts 299°
2026-05-04 14:18 36.42793 -103.96019 28046 ft 399 kts 298°
2026-05-04 14:19 36.48724 -104.07669 28068 ft 398 kts 298°
2026-05-04 14:19 36.51656 -104.13444 28076 ft 397 kts 298°
2026-05-04 14:20 36.54606 -104.19248 28040 ft 397 kts 298°
2026-05-04 14:20 36.57542 -104.25060 27989 ft 397 kts 298°
2026-05-04 14:21 36.60484 -104.30870 27993 ft 397 kts 298°
2026-05-04 14:21 36.61958 -104.33784 27984 ft 398 kts 298°
2026-05-04 14:21 36.63431 -104.36698 27982 ft 398 kts 298°
2026-05-04 14:21 36.64883 -104.39582 27988 ft 399 kts 298°
2026-05-04 14:22 36.66357 -104.42511 27985 ft 399 kts 298°
2026-05-04 14:22 36.67832 -104.45448 27985 ft 400 kts 298°
2026-05-04 14:22 36.70789 -104.51330 28027 ft 401 kts 298°
2026-05-04 14:23 36.75219 -104.60165 28077 ft 400 kts 298°
2026-05-04 14:24 36.78142 -104.66012 28085 ft 399 kts 298°
2026-05-04 14:24 36.81082 -104.71888 28061 ft 399 kts 298°
2026-05-04 14:25 36.84019 -104.77776 28010 ft 399 kts 298°
2026-05-04 14:25 36.88410 -104.86615 28027 ft 400 kts 298°
2026-05-04 14:26 36.91325 -104.92485 28043 ft 401 kts 298°
2026-05-04 14:26 36.94256 -104.98412 28093 ft 401 kts 297°
2026-05-04 14:27 36.97189 -105.04343 28117 ft 402 kts 297°
2026-05-04 14:27 37.00128 -105.10288 28164 ft 402 kts 297°
2026-05-04 14:28 37.03034 -105.16194 28210 ft 401 kts 297°
2026-05-04 14:28 37.05959 -105.22131 28230 ft 401 kts 297°
2026-05-04 14:29 37.11794 -105.34016 28187 ft 401 kts 297°
2026-05-04 14:30 37.14691 -105.39941 28161 ft 401 kts 297°
2026-05-04 14:31 37.19063 -105.48899 28157 ft 402 kts 297°
2026-05-04 14:32 37.24896 -105.60904 28212 ft 403 kts 297°
2026-05-04 14:32 37.27802 -105.66875 28214 ft 404 kts 297°
2026-05-04 14:33 37.30725 -105.72896 28213 ft 404 kts 297°
2026-05-04 14:33 37.33631 -105.78918 28208 ft 403 kts 297°
2026-05-04 14:34 37.36786 -105.84760 28185 ft 405 kts 302°
2026-05-04 14:34 37.40175 -105.90347 28140 ft 404 kts 303°
2026-05-04 14:35 37.43580 -105.95979 28098 ft 405 kts 302°
2026-05-04 14:35 37.46960 -106.01676 28093 ft 407 kts 302°
2026-05-04 14:36 37.50358 -106.07386 28115 ft 408 kts 302°
2026-05-04 14:36 37.53777 -106.13115 28127 ft 410 kts 302°
2026-05-04 14:37 37.57178 -106.18826 28156 ft 410 kts 302°
2026-05-04 14:37 37.60601 -106.24592 28198 ft 411 kts 302°
2026-05-04 14:38 37.64013 -106.30356 28236 ft 409 kts 302°
2026-05-04 14:38 37.67414 -106.36096 28206 ft 408 kts 302°
2026-05-04 14:39 37.70777 -106.41791 28164 ft 407 kts 302°
2026-05-04 14:39 37.74147 -106.47506 28132 ft 405 kts 302°
2026-05-04 14:40 37.79189 -106.56078 28149 ft 406 kts 301°
2026-05-04 14:40 37.82539 -106.61788 28155 ft 408 kts 301°
2026-05-04 14:41 37.85922 -106.67564 28161 ft 410 kts 301°
2026-05-04 14:42 37.92709 -106.79164 28242 ft 409 kts 301°
2026-05-04 14:42 37.96082 -106.84948 28258 ft 407 kts 301°
2026-05-04 14:43 37.99402 -106.90655 28247 ft 404 kts 301°
2026-05-04 14:43 38.02742 -106.96410 28212 ft 408 kts 302°
2026-05-04 14:44 38.06134 -107.02265 28208 ft 414 kts 302°
2026-05-04 14:44 38.09550 -107.08156 28193 ft 415 kts 301°
2026-05-04 14:45 38.12962 -107.14061 28195 ft 415 kts 301°
2026-05-04 14:45 38.16350 -107.19928 28194 ft 414 kts 301°
2026-05-04 14:46 38.19755 -107.25844 28200 ft 415 kts 301°
2026-05-04 14:46 38.23159 -107.31764 28221 ft 415 kts 301°
2026-05-04 14:47 38.26556 -107.37691 28211 ft 414 kts 301°
2026-05-04 14:47 38.29920 -107.43566 28191 ft 413 kts 301°
2026-05-04 14:48 38.33297 -107.49477 28155 ft 412 kts 301°
2026-05-04 14:48 38.36662 -107.55375 28121 ft 411 kts 301°
2026-05-04 14:49 38.40022 -107.61272 28074 ft 411 kts 301°
2026-05-04 14:49 38.43359 -107.67142 28068 ft 412 kts 301°
2026-05-04 14:50 38.46730 -107.73079 28058 ft 414 kts 301°
2026-05-04 14:50 38.50108 -107.79036 28092 ft 414 kts 301°
2026-05-04 14:51 38.53483 -107.85000 28124 ft 415 kts 301°
2026-05-04 14:51 38.56859 -107.90976 28130 ft 414 kts 301°
2026-05-04 14:52 38.60198 -107.96914 28115 ft 414 kts 301°
2026-05-04 14:52 38.63560 -108.02895 28069 ft 414 kts 301°
2026-05-04 14:53 38.66923 -108.08883 28033 ft 414 kts 301°
2026-05-04 14:53 38.70282 -108.14885 28020 ft 415 kts 301°
2026-05-04 14:54 38.73627 -108.20872 28013 ft 417 kts 301°
2026-05-04 14:54 38.77009 -108.26921 28012 ft 419 kts 301°
2026-05-04 14:55 38.80403 -108.33013 28008 ft 421 kts 301°
2026-05-04 14:55 38.82105 -108.36073 27999 ft 422 kts 301°
2026-05-04 14:55 38.83814 -108.39147 27994 ft 423 kts 301°
2026-05-04 14:56 38.87208 -108.45261 28040 ft 424 kts 301°
2026-05-04 14:56 38.90626 -108.51432 28058 ft 425 kts 301°
2026-05-04 14:57 38.94044 -108.57608 28081 ft 424 kts 301°
2026-05-04 14:57 38.97455 -108.63795 28051 ft 424 kts 301°
2026-05-04 14:58 39.00867 -108.69995 28014 ft 425 kts 301°
2026-05-04 14:58 39.04257 -108.76166 28025 ft 425 kts 301°
2026-05-04 14:59 39.07361 -108.82600 28066 ft 422 kts 294°
2026-05-04 15:00 39.11390 -108.92675 28140 ft 422 kts 293°
2026-05-04 15:00 39.14086 -108.99342 28160 ft 423 kts 294°
2026-05-04 15:01 39.18166 -109.09427 28196 ft 423 kts 294°
2026-05-04 15:01 39.20869 -109.16166 28188 ft 423 kts 294°
2026-05-04 15:02 39.23574 -109.22903 28172 ft 423 kts 294°
2026-05-04 15:02 39.26251 -109.29588 28159 ft 421 kts 294°
2026-05-04 15:03 39.28932 -109.36297 28123 ft 420 kts 294°
2026-05-04 15:03 39.31606 -109.42994 28082 ft 419 kts 294°
2026-05-04 15:04 39.34266 -109.49690 28033 ft 420 kts 294°
2026-05-04 15:04 39.36911 -109.56359 28023 ft 421 kts 294°
2026-05-04 15:05 39.39586 -109.63118 28017 ft 423 kts 294°
2026-05-04 15:05 39.42273 -109.69920 28009 ft 426 kts 294°
2026-05-04 15:06 39.43621 -109.73334 27996 ft 427 kts 294°
2026-05-04 15:06 39.44976 -109.76766 28008 ft 428 kts 294°
2026-05-04 15:07 39.49007 -109.87033 28014 ft 429 kts 294°
2026-05-04 15:07 39.51706 -109.93911 28018 ft 428 kts 294°
2026-05-04 15:08 39.54391 -110.00783 27981 ft 427 kts 294°
2026-05-04 15:08 39.55733 -110.04222 27950 ft 428 kts 294°
2026-05-04 15:08 39.57075 -110.07660 27937 ft 427 kts 294°
2026-05-04 15:08 39.58418 -110.11098 27934 ft 427 kts 294°
2026-05-04 15:09 39.59758 -110.14536 27949 ft 427 kts 294°
2026-05-04 15:09 39.61094 -110.17976 27946 ft 427 kts 294°
2026-05-04 15:09 39.62411 -110.21376 27957 ft 427 kts 294°
2026-05-04 15:10 39.65078 -110.28266 27948 ft 428 kts 294°
2026-05-04 15:10 39.66419 -110.31724 27949 ft 429 kts 294°
2026-05-04 15:10 39.69096 -110.38646 27942 ft 430 kts 294°
2026-05-04 15:11 39.70433 -110.42115 27973 ft 429 kts 294°
2026-05-04 15:11 39.71769 -110.45584 27999 ft 429 kts 294°
2026-05-04 15:11 39.73086 -110.49002 28017 ft 429 kts 293°
2026-05-04 15:12 39.75725 -110.55865 28011 ft 421 kts 293°
2026-05-04 15:12 39.78328 -110.62676 28010 ft 421 kts 293°
2026-05-04 15:13 39.80933 -110.69503 28040 ft 422 kts 292°
2026-05-04 15:13 39.83528 -110.76291 27823 ft 414 kts 293°
2026-05-04 15:13 39.84793 -110.79614 27535 ft 416 kts 292°
2026-05-04 15:14 39.86078 -110.83004 27298 ft 419 kts 293°
2026-05-04 15:14 39.87377 -110.86419 27050 ft 422 kts 293°
2026-05-04 15:14 39.88681 -110.89858 26780 ft 425 kts 293°
2026-05-04 15:14 39.89989 -110.93319 26533 ft 428 kts 293°
2026-05-04 15:15 39.91307 -110.96805 26286 ft 430 kts 293°
2026-05-04 15:15 39.92632 -111.00313 26039 ft 433 kts 293°
2026-05-04 15:15 39.93966 -111.03845 25792 ft 436 kts 293°
2026-05-04 15:16 39.96643 -111.10931 25300 ft 441 kts 294°
2026-05-04 15:16 39.97998 -111.14530 25052 ft 444 kts 294°
2026-05-04 15:16 40.00726 -111.21815 24541 ft 450 kts 294°
2026-05-04 15:17 40.02102 -111.25495 24037 ft 451 kts 295°
2026-05-04 15:17 40.04853 -111.32815 22457 ft 448 kts 295°
2026-05-04 15:17 40.06216 -111.36462 21667 ft 446 kts 295°
2026-05-04 15:18 40.07567 -111.40096 20897 ft 443 kts 295°
2026-05-04 15:18 40.08906 -111.43701 20168 ft 439 kts 295°
2026-05-04 15:18 40.10216 -111.47230 19477 ft 435 kts 295°
2026-05-04 15:19 40.12782 -111.54123 18946 ft 404 kts 295°
2026-05-04 15:19 40.13978 -111.57344 18899 ft 385 kts 295°
2026-05-04 15:19 40.16223 -111.63430 18487 ft 361 kts 295°
2026-05-04 15:20 40.17300 -111.66350 18238 ft 352 kts 295°
2026-05-04 15:20 40.18369 -111.69251 18001 ft 356 kts 295°
2026-05-04 15:20 40.19436 -111.72151 17759 ft 361 kts 295°
2026-05-04 15:20 40.20531 -111.75120 17508 ft 363 kts 295°
2026-05-04 15:21 40.21627 -111.78086 17257 ft 362 kts 295°
2026-05-04 15:21 40.22716 -111.81044 17035 ft 360 kts 295°
2026-05-04 15:21 40.24887 -111.86959 17033 ft 361 kts 295°
2026-05-04 15:22 40.25972 -111.89919 17034 ft 361 kts 295°
2026-05-04 15:22 40.27147 -111.92821 17020 ft 362 kts 303°
2026-05-04 15:22 40.30976 -111.96969 16680 ft 357 kts 329°
2026-05-04 15:23 40.33115 -111.98485 16181 ft 354 kts 331°
2026-05-04 15:23 40.35307 -111.99995 15478 ft 358 kts 331°
2026-05-04 15:23 40.37483 -112.01552 15056 ft 354 kts 330°
2026-05-04 15:23 40.39625 -112.03160 15026 ft 354 kts 329°
2026-05-04 15:24 40.44186 -112.05429 14898 ft 353 kts 351°
2026-05-04 15:24 40.49019 -112.06010 13897 ft 349 kts 355°
2026-05-04 15:25 40.51435 -112.06236 13104 ft 356 kts 355°
2026-05-04 15:25 40.53894 -112.06517 12591 ft 352 kts 353°
2026-05-04 15:25 40.56294 -112.06840 12324 ft 342 kts 353°
2026-05-04 15:26 40.61039 -112.07509 12013 ft 343 kts 353°
2026-05-04 15:26 40.63399 -112.07828 12012 ft 334 kts 353°
2026-05-04 15:26 40.67829 -112.08356 11781 ft 307 kts 354°
2026-05-04 15:27 40.69889 -112.08578 11656 ft 295 kts 354°
2026-05-04 15:27 40.73820 -112.09025 11429 ft 272 kts 354°
2026-05-04 15:28 40.77501 -112.09467 11018 ft 262 kts 354°
2026-05-04 15:28 40.79319 -112.09681 11013 ft 262 kts 354°
2026-05-04 15:28 40.82807 -112.10090 10990 ft 241 kts 354°
2026-05-04 15:29 40.84464 -112.10292 10726 ft 239 kts 354°
2026-05-04 15:30 40.91143 -112.11084 9216 ft 242 kts 354°
2026-05-04 15:30 40.95888 -112.10412 8348 ft 231 kts 43°
2026-05-04 15:31 40.97266 -112.06756 7687 ft 224 kts 86°
2026-05-04 15:31 40.97134 -112.04761 7340 ft 220 kts 111°
2026-05-04 15:32 40.93772 -112.01362 6558 ft 195 kts 174°
2026-05-04 15:32 40.91275 -112.01161 6034 ft 169 kts 175°
2026-05-04 15:33 40.89087 -112.00887 5984 ft 154 kts 174°
2026-05-04 15:34 40.85974 -112.00530 5319 ft 147 kts 174°
2026-05-04 15:34 40.84954 -112.00414 5128 ft 147 kts 174°
2026-05-04 15:34 40.82924 -112.00172 4711 ft 147 kts 174°
2026-05-04 15:35 40.80908 -111.99945 4292 ft 145 kts 174°
2026-05-04 15:35 40.79978 -111.99834 4242 ft 109 kts 176°
2026-05-04 15:35 40.79523 -111.99781 4242 ft 33 kts 175°
2026-05-04 15:36 40.79178 -111.99687 4242 ft 17 kts 141°
2026-05-04 15:36 40.79109 -111.99602 4242 ft 12 kts 119°
2026-05-04 15:36 40.79093 -111.99483 4242 ft 14 kts 86°
2026-05-04 15:37 40.79100 -111.99341 4242 ft 17 kts 85°
2026-05-04 15:37 40.79111 -111.99176 4242 ft 19 kts 84°
2026-05-04 15:37 40.79122 -111.99027 4242 ft 10 kts 85°
2026-05-04 15:37 40.79092 -111.98954 4242 ft 11 kts 171°
2026-05-04 15:38 40.79026 -111.98959 4242 ft 9 kts 216°
2026-05-04 15:38 40.78972 -111.99007 4242 ft 10 kts 186°
2026-05-04 15:38 40.78933 -111.99004 4242 ft 0 kts 175°